Date,TemperatureHighF,TemperatureAvgF,TemperatureLowF,DewpointHighF,DewpointAvgF,DewpointLowF,HumidityHigh,HumidityAvg,HumidityLow,PressureMaxIn,PressureMinIn,WindSpeedMaxMPH,WindSpeedAvgMPH,GustSpeedMaxMPH,PrecipitationSumIn
2013-12-1,47.5,40.3,34.0,41.7,33.7,25.9,95,78,43,27.88,27.40,28,7,28,0.71
2013-12-2,47.3,34.6,25.0,28.6,14.8,3.2,68,45,29,27.70,27.34,27,12,28,0.00
2013-12-3,29.1,22.7,14.9,4.9,-7.2,-13.8,42,26,20,27.93,27.70,23,12,23,0.00
2013-12-4,30.0,17.3,10.9,-0.5,-7.4,-11.4,48,33,20,27.99,27.93,7,3,7,0.00
2013-12-5,23.9,16.1,10.2,2.1,-2.1,-4.4,55,44,33,27.97,27.91,12,4,12,0.00
2013-12-6,18.1,9.8,4.5,0.4,-12.5,-24.5,55,38,23,27.97,27.91,25,14,25,0.00
2013-12-7,15.3,5.3,-2.6,-15.2,-23.8,-30.7,24,24,24,27.99,27.88,26,11,26,0.00
2013-12-8,18.7,8.4,-2.6,-5.9,-17.1,-30.5,39,30,24,28.14,27.99,6,2,6,0.00
2013-12-9,21.2,17.1,11.3,4.3,-2.7,-11.7,50,41,34,28.14,27.99,10,4,10,0.00
2013-12-10,33.8,23.2,18.9,9.6,6.0,2.8,56,48,32,28.11,27.97,8,3,8,0.00
2013-12-11,24.3,23.9,22.8,9.1,8.4,5.6,52,51,47,28.11,28.08,8,3,8,0.00
2013-12-12,24.3,24.3,24.3,9.1,9.1,9.1,52,52,52,28.11,28.11,3,3,3,0.00
2013-12-13,24.3,24.3,24.3,9.1,9.1,9.1,52,52,52,28.11,28.11,3,3,3,0.00
2013-12-14,40.5,37.5,33.6,34.5,29.9,25.2,80,74,67,28.05,27.99,0,0,0,0.13
2013-12-15,49.3,39.0,28.8,30.6,25.6,20.2,86,61,37,28.02,27.93,13,2,16,0.00
2013-12-16,44.2,34.9,29.3,31.9,26.2,21.7,89,71,49,28.11,28.02,8,2,10,0.00
2013-12-17,51.3,35.2,27.9,31.8,23.2,16.6,95,66,27,28.02,27.70,10,4,10,0.00
2013-12-18,37.2,30.9,25.9,28.0,22.8,17.1,78,71,65,27.70,27.58,13,2,13,0.00
2013-12-19,34.9,27.0,20.1,23.9,7.4,3.6,77,44,30,27.91,27.67,14,5,14,0.00
2013-12-20,27.0,24.7,21.6,18.9,10.6,-0.5,75,56,35,27.82,27.40,13,5,15,0.00
2013-12-21,32.2,28.0,25.0,22.8,17.9,14.4,77,66,52,27.79,27.49,10,2,10,0.00
2013-12-22,38.5,32.1,28.6,28.7,24.5,19.8,83,74,52,27.97,27.79,5,1,5,0.00
2013-12-23,43.0,35.9,32.7,38.7,29.5,18.7,94,78,54,27.99,27.70,30,6,30,0.58
2013-12-24,40.8,30.9,25.2,25.7,20.3,16.4,83,66,42,28.23,27.99,10,3,13,0.00
2013-12-25,39.7,29.5,24.8,26.9,22.5,19.3,89,76,46,28.23,28.08,8,2,9,0.00
2013-12-26,41.0,30.9,26.4,29.2,23.0,20.4,87,73,51,28.11,27.99,0,0,0,0.00
2013-12-27,34.9,30.3,24.4,27.5,23.2,18.3,86,75,57,30.15,27.85,13,2,13,0.04
2013-12-28,31.1,28.8,27.3,23.6,21.8,19.8,82,75,68,30.39,30.15,11,4,11,0.00
2013-12-29,36.1,29.0,22.1,24.8,20.4,15.4,82,70,54,30.39,30.18,14,4,14,0.00
2013-12-30,33.4,29.8,23.5,28.5,24.5,16.2,89,81,73,30.24,30.06,7,3,8,0.00
2013-12-31,35.6,32.3,27.7,30.4,27.7,23.4,88,83,77,33.15,27.15,6,2,6,0.00